Location: Piolenc
(44.1794°N, 4.7641°E)
Time: 01:07:31
(UTC+00:00)

Cosmos 1703 - Pass Details

Date: 27 January 2021
Orbit: 524 x 538 km, 82.5° (Epoch: 27 February)

Event Time Altitude Azimuth Distance (km) Brightness Sun altitude
Exits shadow 05:38:27 25° 251° (WSW) 1,101 4.3 -15.4°
Drops below altitude 10° 05:41:02 10° 212° (SSW) 1,776 5.7 -14.9°
Sets 05:43:24 0° 200° (SSW) 2,663 6.7 -14.5°
